Вернуться в каталог

COSMOS 1249 COOLANT

АктивенLEO
NORAD 26503·DEBRIS·🇷🇺 Russia

Запущен Mar 5, 1981 с Baikonur Cosmodrome

Loading…

Ближайшие Пролёты (ближайшие 24 часа)

TLE

СвежийSource: Space-Track

Эпоха: Sep 13, 2026, 04:52 UTC

1 26503U 81021E   26256.20329066  .00000044  00000-0  10399-3 0  9990
2 26503  64.9578  64.5963 0061472 238.9819 296.7423 13.92183192345408

Отслеживайте COSMOS 1249 COOLANT в реальном времени с AllMySat

Download on the App Store